STARLINK-1214 (45224 NORAD) Tracking and Keplerian Element Data

This shows tracking and keplerian element data for the satellite.

Feedback or suggestion? Click here.




ElementValue
Catalog45224
NameSTARLINK-1214
Epoch Orbit752
Epoch Day94.25001157
Epoch Year2020
RAAN42.9225
Inclination52.9968
Eccentricity0.0007171
Argument of Perigee321.0957
Mean Anonmoly135.3701
Mean Motion15.6272232
Decay Rate0.00033701
L11 45224U 20012AY 20094.25001157 .00033701 00000-0 37242-3 0 9993
L22 45224 52.9968 42.9225 0007171 321.0957 135.3701 15.62722320 7529

Live tracking and technical data element details for STARLINK-1214 (NORAD 45224). STARLINK-1214 can be tracked NOW for your location showing map with azimuth and elevation plus other details from your city location.

Track the satellite on the map from your city or location and see movement details for azimuth, elevation, latitude, longitude, range, height, and movement on the map or in text.







IsCatalogInMostPopularTable: catalog: 45224, numindb: 6
Update: records affected: 1



GetName: 45224 STARLINK-1214

Hit Count: updated at: Mon, 06 Apr 2020 12:18:05 GMT